Regional Weather Roundup
Issued by NWS

Home | Current Version | Previous Version | Text Only | Print | Product List | Glossary On
Versions: 1 2 3 4 5 6 7 8 9 10 11 12 13 14 15 16 17 18 19 20 21 22 23 24 25 26 27 28 29 30 31 32 33 34 35 36 37 38 39 40 41 42 43 44 45 46 47 48 49 50
000
ASUS43 KFSD 021310
RWRSD

WEATHER ROUNDUP FOR SOUTH DAKOTA
NATIONAL WEATHER SERVICE SIOUX FALLS SD
700 AM CST TUE MAR 02 2021

NOTE: "FAIR" INDICATES FEW OR NO CLOUDS BELOW 12,000 FEET WITH NO
SIGNIFICANT WEATHER AND/OR OBSTRUCTIONS TO VISIBILITY.


SDZ001>005-009-010-012>017-021400-
NORTHWEST AND NORTH CENTRAL SOUTH DAKOTA

CITY           SKY/WX    TMP DP  RH WIND       PRES   REMARKS
BUFFALO          N/A     33  21  61 W15       29.81R WCI  23
FAITH            N/A     36  21  54 W17       29.80R
MOBRIDGE       PTCLDY    21  17  84 SE6       29.75F WCI  13
$$

SDZ012>016-024>037-041>051-057-063-072>074-021400-
SOUTHWEST AND SOUTH CENTRAL SOUTH DAKOTA

CITY           SKY/WX    TMP DP  RH WIND       PRES   REMARKS
RAPID CTY ARPT CLEAR     36  20  52 NW13      29.84R
PIERRE         PTCLDY    24  18  77 NW6       29.81R WCI  17
CUSTER         CLEAR     35  14  42 W14       29.90S WCI  26
ELLSWORTH AFB  CLEAR     35  19  53 N9        29.83R WCI  27
PHILIP         CLEAR     34  23  64 W15       29.81R WCI  24
PINE RIDGE     CLEAR     34  20  56 W10       29.91R WCI  26
SPEARFISH      FAIR      43  16  33 W16       29.88R
WINNER         CLEAR     40  19  43 SW25G36   29.81F
$$

SDZ004>011-016>023-039-040-021400-
NORTHEAST SOUTH DAKOTA

CITY           SKY/WX    TMP DP  RH WIND       PRES   REMARKS
ABERDEEN       CLEAR     27  22  81 S12       29.78F WCI  17
WATERTOWN      CLEAR     30  23  75 S10       29.82F WCI  21
BROOKINGS      CLEAR     28  24  85 S18       29.86F WCI  15
SISSETON         N/A     40  23  50 SW17G29   29.74F
$$

SDZ017-020-022-023-036>040-048>070-021400-
SOUTHEAST SOUTH DAKOTA

CITY           SKY/WX    TMP DP  RH WIND       PRES   REMARKS
SIOUX FALLS    PTCLDY    32  26  78 S17G26    29.93F WCI  21
HURON          CLEAR     32  24  72 S13       29.83F WCI  22
CHAMBERLAIN    CLEAR     34  23  62 S8        29.83F WCI  27
MITCHELL       CLEAR     36  24  62 S13       29.87F
YANKTON        CLEAR     36  24  62 S16G24    29.97F
$$

ABBREVIATIONS USED IN REMARKS
   TC - TEMPERATURE IN CELSIUS
  WCI - WIND CHILL INDEX
   HX - HEAT INDEX
  VSB - VISIBILITY




USA.gov is the U.S. government's official web portal to all federal, state and local government web resources and services.